This demonstration page uses our WeatherBlox Daily Observations layout. Learn more.

Left ArrowRight Arrow

41.86663, -103.66717

Hourly Observations for April 23, 2018

Temp ( °F °C ) Dew Point ( °F °C ) Humidity (%) Winds ( mph kmh ) Pressure ( in mb ) Visibility ( mi km ) Precip ( " mm )
12:53 am 00:53 Clear 40 4.4 38 3.3 93 93 ESE 12 19 30.12 1020 10 16 N/A
1:53 am 01:53 Clear 39 3.9 37 2.8 93 93 ESE 10 17 30.10 1019 10 16 N/A
2:53 am 02:53 Clear 37 2.8 36 2.2 96 96 E 9 15 30.08 1019 10 16 N/A
3:53 am 03:53 Clear 37 2.8 35 1.7 93 93 E 12 19 30.07 1018 10 16 N/A
4:53 am 04:53 Clear 36 2.2 35 1.7 97 97 ESE 9 15 30.06 1018 10 16 N/A
5:53 am 05:53 Clear 34 1.1 34 1.1 100 100 ESE 8 13 30.08 1019 10 16 N/A
6:53 am 06:53 Sunny 38 3.3 36 2.2 93 93 ESE 12 19 30.07 1018 10 16 N/A
7:53 am 07:53 Sunny 43 6.1 39 3.9 86 86 ESE 13 20 30.08 1019 10 16 N/A
8:53 am 08:53 Sunny 48 8.9 41 5 77 77 ESE 9 15 30.07 1018 10 16 N/A
9:53 am 09:53 Sunny 54 12.2 43 6.1 67 67 ESE 12 19 30.06 1018 10 16 N/A
10:53 am 10:53 Sunny 59 15 44 6.7 58 58 SE 14 22 30.04 1017 10 16 N/A
11:53 am 11:53 Sunny 64 17.8 43 6.1 46 46 SE 14 22 30.01 1016 10 16 N/A
12:53 pm 12:53 Sunny 68 20 42 5.6 39 39 SSE 20 31 29.96 1015 10 16 N/A
1:53 pm 13:53 Sunny 69 20.6 40 4.4 35 35 SE 21 33 29.93 1014 10 16 N/A
2:53 pm 14:53 Sunny 67 19.4 41 5 39 39 SSE 14 22 29.96 1015 10 16 N/A
3:53 pm 15:53 Mostly Sunny 67 19.4 42 5.6 41 41 SSE 18 30 29.92 1013 10 16 N/A
4:53 pm 16:53 Mostly Cloudy 67 19.4 44 6.7 44 44 S 8 13 29.94 1014 10 16 N/A
5:53 pm 17:53 Cloudy with Light Rain 64 17.8 46 7.8 52 52 SW 10 17 29.96 1015 10 16 N/A
6:26 pm 18:26 Cloudy with Rain 54 12 48 9 82 82 NNW 43 69 30.00 1016 3 4 N/A
6:42 pm 18:42 Cloudy with Light Rain 50 10 48 9 94 94 NNW 28 44 30.03 1017 6 10 N/A
6:53 pm 18:53 Cloudy with Light Rain 50 10 49 9.4 96 96 N 28 44 30.06 1018 10 16 0.05 1.27
7:53 pm 19:53 Cloudy with Rain 45 7.2 45 7.2 100 100 NW 23 37 30.18 1022 7 11 0.02 0.51
8:53 pm 20:53 Mostly Cloudy 43 6.1 43 6.1 100 100 NW 15 24 30.20 1023 10 16 0.06 1.52
9:20 pm 21:20 Cloudy 42 5.6 42 5.6 100 100 NW 20 31 30.27 1025 10 16 N/A
9:53 pm 21:53 Cloudy 41 5 41 5 100 100 NW 22 35 30.25 1024 10 16 N/A
10:09 pm 22:09 Cloudy 41 5 40 4.4 96 96 NW 20 31 30.30 1026 10 16 N/A
10:53 pm 22:53 Cloudy 40 4.4 36 2.2 86 86 NW 21 33 30.25 1025 10 16 N/A
11:53 pm 23:53 Mostly Clear 39 3.9 35 1.7 86 86 NW 20 31 30.27 1025 10 16 N/A

Powered by AerisWeather